Find Starlink 30825

NORAD ID: 58384 Int'l Des: 2023-178 Owner: SPXS Country: US Constellation: starlink operational
LEOCIRCULAR

Live Position

Loading 3D Globe...

About Starlink 30825

Description loading...

Upcoming Passes

Passes for default location (London). Set your location on the main map for personalized predictions.

Altitude History

Loading altitude history...

Two-Line Element Set

1 58384U 23178L 26139.95277088 .00000381 00000-0 22408-4 0 9998
2 58384 53.1617 29.2175 0001287 88.0845 272.0305 15.34392939140811
Epoch: May 19, 2026 • Age: 8 hours

Current Status

Altitude 466.0 km
Velocity 7.64 km/s
Sub-Earth Point 42.01°N, 87.94°E
Launch Date Nov 20, 2023
Age 2.4 years
Type internet

Technical Details

Classification Payload
Mass 730.00 kg
Dry Mass 700.00 kg
Total Mass 730.00 kg
Length 0.30 m
Diameter 4.10 m
Span 29.00 m
Shape Box + pan
Manufacturer SPXS
Bus Type Starlink V2M
Phase Status In Orbit
Owner/State SPXS/US

Most Searched